BAW2065 EGKK-FIMP

Flight info

Callsign BAW2065
Flight time N/A
Altitude 31000
Route ODVIK2Z ODVIK Y311 DVR UL9 KONAN UL607 KOK DCT REMBA DCT LIRSU DCT KRH DCT KUNOD DCT GEDSO DCT VEKEN DCT MSR DCT PINDO DCT KEA/N0479F330 DCT PAXIS/N0477F350 Y707 OBRAN P557 LOTOB DCT KUNKI P751 LXR M999 JDW G650 RASKA/N0487F340 G650 ASM/N0485F350 UR780 SETIT DCT XADOX DCT DWA N304 AVUSI UN304 APKAK/N0479F360 UN304 DENLI/N0477F370 UN304 MAEVA UL433 APKOT DCT TIBAG TIBAG2E
Aircraft B772/H-SDE1E3FGHIJ3J5J6M1M2P2RWXYZ/LB1D1

Departure

Time 2026-05-05 21:00
Airport London Gatwick Airport (EGKK)

Arrival

Time N/A
Airport Sir Seewoosagur Ramgoolam International Airport (FIMP)
Time Latitude Longitude Altitude Speed Heading
2026-05-05 20:24 51.15463 -0.17163 209 ft 0 kts 35°
2026-05-05 20:49 51.15450 -0.17178 209 ft 3 kts 34°
2026-05-05 20:49 51.15432 -0.17199 220 ft 4 kts 47°
2026-05-05 20:49 51.15419 -0.17229 220 ft 4 kts 81°
2026-05-05 20:50 51.15420 -0.17258 209 ft 4 kts 129°
2026-05-05 20:50 51.15438 -0.17278 209 ft 4 kts 167°
2026-05-05 20:50 51.15457 -0.17285 209 ft 0 kts 167°
2026-05-05 20:53 51.15440 -0.17279 209 ft 7 kts 167°
2026-05-05 20:53 51.15385 -0.17282 209 ft 8 kts 216°
2026-05-05 20:53 51.15353 -0.17349 212 ft 8 kts 225°
2026-05-05 20:53 51.15310 -0.17403 221 ft 8 kts 236°
2026-05-05 20:54 51.15295 -0.17494 221 ft 13 kts 257°
2026-05-05 20:54 51.15269 -0.17678 215 ft 18 kts 257°
2026-05-05 20:54 51.15242 -0.17875 218 ft 21 kts 257°
2026-05-05 20:54 51.15210 -0.18106 212 ft 22 kts 257°
2026-05-05 20:55 51.15184 -0.18342 217 ft 22 kts 261°
2026-05-05 20:55 51.15151 -0.18575 209 ft 22 kts 257°
2026-05-05 20:55 51.15120 -0.18809 212 ft 22 kts 258°
2026-05-05 20:55 51.15089 -0.19043 219 ft 22 kts 258°
2026-05-05 20:56 51.15056 -0.19277 219 ft 22 kts 257°
2026-05-05 20:56 51.15024 -0.19511 210 ft 22 kts 257°
2026-05-05 20:56 51.14990 -0.19744 210 ft 22 kts 257°
2026-05-05 20:56 51.14958 -0.19977 213 ft 22 kts 259°
2026-05-05 20:57 51.14929 -0.20212 214 ft 22 kts 258°
2026-05-05 20:57 51.14896 -0.20445 217 ft 22 kts 257°
2026-05-05 20:57 51.14863 -0.20679 209 ft 22 kts 257°
2026-05-05 20:57 51.14830 -0.20912 212 ft 22 kts 258°
2026-05-05 20:58 51.14795 -0.21144 221 ft 22 kts 250°
2026-05-05 20:58 51.14750 -0.21366 221 ft 18 kts 238°
2026-05-05 20:58 51.14693 -0.21388 209 ft 8 kts 159°
2026-05-05 20:58 51.14642 -0.21349 209 ft 9 kts 159°
2026-05-05 20:59 51.14576 -0.21307 210 ft 12 kts 153°
2026-05-05 20:59 51.14525 -0.21183 220 ft 16 kts 93°
2026-05-05 20:59 51.14579 -0.20756 216 ft 72 kts 77°
2026-05-05 20:59 51.14734 -0.19632 215 ft 134 kts 77°
2026-05-05 21:00 51.14974 -0.17889 257 ft 183 kts 78°
2026-05-05 21:00 51.15245 -0.15850 832 ft 190 kts 78°
2026-05-05 21:00 51.15533 -0.13757 1497 ft 201 kts 77°
2026-05-05 21:00 51.15851 -0.11483 1666 ft 217 kts 77°
2026-05-05 21:01 51.16181 -0.09078 1890 ft 230 kts 77°
2026-05-05 21:01 51.16530 -0.06514 2127 ft 242 kts 77°
2026-05-05 21:01 51.16884 -0.03849 2497 ft 249 kts 80°
2026-05-05 21:01 51.16960 -0.01048 2887 ft 256 kts 90°
2026-05-05 21:02 51.16874 0.01810 3399 ft 259 kts 90°
2026-05-05 21:02 51.16784 0.04671 3999 ft 257 kts 90°